Location: Chandrammap?lem
(16.9200°N, 81.0051°E)
Time: 13:34:36
(UTC+00:00)

Cosmos 2297 - Pass Details

Date: 29 May 2024
Orbit: 834 x 859 km, 71.0° (Epoch: 16 June)

Event Time Altitude Azimuth Distance (km) Brightness Sun altitude
Rises 15:09:47 0° 335° (NNW) 3,414 7.8 -26.9°
Reaches altitude 10° 15:12:18 10° 331° (NNW) 2,474 6.9 -27.4°
Maximum altitude 15:17:48 53° 256° (WSW) 1,033 4.2 -28.4°
Enters shadow 15:18:45 47° 222° (SW) 1,104 4.2 -28.6°
